BSAT-4A

Last updated on Thu Oct 03 2024 00:02:41 GMT+0000 (Coordinated Universal Time)

1 42951U 17059B 24276.21924425 -.00000351 00000+0 00000+0 0 9991 2 42951 0.0700 58.7916 0000822 49.3540 92.0688 1.00272734 25559
UTC large
Height (km)
Speed (km/s)
/
Latitude / Longitude
Inclination (degrees)
Orbital Period (minutes)
Azimuth
Elevation
Range (km)
Doppler Factor

Next 0 passes for location: London (51.5072 / 0.1276)

Sorry there are no passes over London.